Weather History for Goodland, KS

Change the Weather History Date:

Friday, November 30, 2012

  Actual Average Record
Temperature  
Mean Temperature 44 °F 33 °F  
Max Temperature 65 °F 45 °F 73 °F (1970)
Min Temperature 23 °F 20 °F -3 °F (1985)
Degree Days  
Heating Degree Days 21 32  
Month to date heating degree days 622 778  
Since 1 July heating degree days 1156 1319  
Cooling Degree Days 0 0  
Month to date cooling degree days 0 0  
Year to date cooling degree days 1338 941  
Moisture  
Dew Point 17 °F    
Average Humidity 41    
Maximum Humidity 70    
Minimum Humidity 12    
Precipitation  
Precipitation 0.00 in 0.02 in 0.53 in (1981)
Month to date precipitation T 0.71  
Year to date precipitation 9.02 19.20  
Snow  
Snow 0.00 in 0.20 in - ()
Month to date snowfall T 4.6  
Since 1 July snowfall 0.5 7.2  
Since 1 September snowfall 0.5 7.2  
Snow Depth 0.00 in    
Sea Level Pressure  
Sea Level Pressure 29.96 in    
Wind  
Wind Speed 11 mph (South)    
Max Wind Speed 24 mph    
Max Gust Speed 28 mph    
Visibility 10 miles    
Events      
T = Trace of Precipitation, MM = Missing Value Source: NWS Daily Summary

Daily Weather History Graph

Daily Weather History Graph

Search for Another Location

Airport:

Trip Planner

Search our weather history database for the weather conditions in past years. The results will help you decide how hot, cold, wet, or windy it might be!

Date:

Astronomy

Nov. 30, 2012 Rise Set
Actual Time 6:47 AM MST 4:23 PM MST
Civil Twilight 6:17 AM MST 4:53 PM MST
Nautical Twilight 5:44 AM MST 5:26 PM MST
Astronomical Twilight 5:11 AM MST 5:59 PM MST
Moon 6:20 PM MST 8:20 AM MST
Length of Visible Light 10h 36m
Length of Day
9h 36m
Waning Gibbous, 96% of the Moon is Illuminated
Nov 30
Waning Gibbous
Dec 6
Last Quarter
Dec 13
New
Dec 19
First Quarter
Dec 28
Full

Hourly Weather History & Observations

Time (MST) Temp. Windchill Dew Point Humidity Pressure Visibility Wind Dir Wind Speed Gust Speed Precip Events Conditions
12:53 AM 28.9 °F 25.2 °F 9.0 °F 43% 30.01 in 10.0 mi NW 3.5 mph - N/A   Clear
1:53 AM 28.9 °F 23.9 °F 10.0 °F 45% 30.02 in 10.0 mi NW 4.6 mph - N/A   Clear
2:53 AM 30.0 °F - 12.9 °F 49% 30.02 in 10.0 mi Calm Calm - N/A   Clear
3:53 AM 27.0 °F 21.6 °F 12.9 °F 56% 30.04 in 10.0 mi WNW 4.6 mph - N/A   Clear
4:53 AM 32.0 °F 28.7 °F 16.0 °F 52% 30.06 in 10.0 mi West 3.5 mph - N/A   Clear
5:53 AM 25.0 °F - 12.9 °F 60% 30.09 in 10.0 mi Calm Calm - N/A   Clear
6:53 AM 24.1 °F - 12.9 °F 62% 30.08 in 10.0 mi Calm Calm - N/A   Clear
7:53 AM 39.0 °F 34.8 °F 19.9 °F 46% 30.07 in 10.0 mi East 5.8 mph - N/A   Clear
8:53 AM 48.0 °F - 19.0 °F 32% 30.05 in 10.0 mi SSE 12.7 mph - N/A   Clear
9:53 AM 54.0 °F - 12.9 °F 20% 30.03 in 10.0 mi SSE 15.0 mph - N/A   Clear
10:53 AM 59.0 °F - 10.9 °F 15% 30.01 in 10.0 mi SSE 19.6 mph - N/A   Clear
11:53 AM 61.0 °F - 10.0 °F 13% 29.96 in 10.0 mi SSE 15.0 mph - N/A   Clear
12:53 PM 64.0 °F - 10.9 °F 13% 29.92 in 10.0 mi South 19.6 mph - N/A   Clear
1:53 PM 64.0 °F - 12.9 °F 14% 29.90 in 10.0 mi SSE 17.3 mph - N/A   Clear
2:53 PM 63.0 °F - 15.1 °F 16% 29.88 in 10.0 mi South 18.4 mph - N/A   Clear
3:53 PM 55.9 °F - 16.0 °F 21% 29.91 in 10.0 mi SSE 10.4 mph - N/A   Clear
4:53 PM 46.9 °F - 15.1 °F 28% 29.93 in 10.0 mi SSE 11.5 mph - N/A   Clear
5:53 PM 48.9 °F - 16.0 °F 27% 29.94 in 10.0 mi South 16.1 mph - N/A   Clear
6:53 PM 43.0 °F 36.4 °F 17.1 °F 35% 29.94 in 10.0 mi South 12.7 mph - N/A   Clear
7:53 PM 46.9 °F - 24.1 °F 41% 29.88 in 10.0 mi South 16.1 mph - N/A   Clear
8:53 PM 46.0 °F 39.3 °F 28.9 °F 51% 29.85 in 10.0 mi South 16.1 mph - N/A   Clear
9:53 PM 44.1 °F 37.1 °F 30.0 °F 58% 29.83 in 10.0 mi South 15.0 mph - N/A   Clear
10:53 PM 43.0 °F 36.4 °F 33.1 °F 68% 29.80 in 10.0 mi South 12.7 mph - N/A   Clear
11:53 PM 44.1 °F 37.7 °F 35.1 °F 71% 29.77 in 10.0 mi South 12.7 mph - N/A   Clear